Change the Weather History Date:

Tuesday, November 2, 2010

  Actual Average Record
Temperature  
Mean Temperature 75 °F 72 °F  
Max Temperature 79 °F 81 °F 89 °F (1972)
Min Temperature 70 °F 63 °F 40 °F (1993)
Degree Days  
Heating Degree Days 0 0  
Month to date heating degree days 0 0  
Since 1 July heating degree days 0 4  
Cooling Degree Days 10 8  
Month to date cooling degree days 20 16  
Year to date cooling degree days 3532 3382  
Growing Degree Days 25 (Base 50)    
Moisture  
Dew Point 67 °F    
Average Humidity 73    
Maximum Humidity 84    
Minimum Humidity 62    
Precipitation  
Precipitation 0.28 in 0.05 in 0.94 in (1976)
Month to date precipitation 0.28 0.10  
Year to date precipitation 38.01 42.38  
Sea Level Pressure  
Sea Level Pressure 30.07 in    
Wind  
Wind Speed 3 mph (East)    
Max Wind Speed 9 mph    
Max Gust Speed 14 mph    
Visibility 9 miles    
Events Rain    
T = Trace of Precipitation, MM = Missing Value Source: NWS Daily Summary

Daily Weather History Graph

Daily Weather History Graph

Search for Another Location

Airport or City:

Trip Planner

Search our weather history database for the weather conditions in past years. The results will help you decide how hot, cold, wet, or windy it might be!

Date:

Astronomy

Nov. 02, 2010 Rise Set
Actual Time 7:41 AM EDT 6:45 PM EDT
Civil Twilight 7:17 AM EDT 7:09 PM EDT
Nautical Twilight 6:49 AM EDT 7:37 PM EDT
Astronomical Twilight 6:22 AM EDT 8:04 PM EDT
Moon 3:47 AM EDT (11/2) 4:07 PM EDT (11/2)
Length of Visible Light 11h 51m
Length of Day
11h 03m
Waning Crescent, 17% of the Moon is Illuminated
Nov 2
Waning Crescent
Nov 6
New
Nov 13
First Quarter
Nov 21
Full
Nov 28
Last Quarter

Hourly Weather History & Observations

Time (EDT) Temp. Dew Point Humidity Pressure Visibility Wind Dir Wind Speed Gust Speed Precip Events Conditions
12:53 AM 72.0 °F 62.1 °F 71% 30.12 in 10.0 mi Calm Calm - N/A   Partly Cloudy
1:53 AM 72.0 °F 62.1 °F 71% 30.11 in 10.0 mi Calm Calm - N/A   Partly Cloudy
2:53 AM 71.1 °F 63.0 °F 75% 30.10 in 10.0 mi Calm Calm - N/A   Scattered Clouds
3:53 AM 71.1 °F 64.0 °F 78% 30.09 in 10.0 mi Calm Calm - N/A   Mostly Cloudy
4:17 AM 71.6 °F 64.4 °F 78% 30.08 in 10.0 mi Calm Calm - N/A   Mostly Cloudy
4:53 AM 72.0 °F 66.0 °F 81% 30.08 in 10.0 mi Calm Calm - N/A   Mostly Cloudy
5:34 AM 71.6 °F 66.2 °F 83% 30.08 in 10.0 mi Calm Calm - N/A   Mostly Cloudy
5:53 AM 72.0 °F 66.9 °F 84% 30.08 in 10.0 mi Calm Calm - N/A   Mostly Cloudy
6:53 AM 73.0 °F 68.0 °F 84% 30.08 in 10.0 mi Calm Calm - N/A   Scattered Clouds
7:02 AM 73.4 °F 68.0 °F 83% 30.08 in 10.0 mi Calm Calm - N/A   Mostly Cloudy
7:53 AM 73.0 °F 68.0 °F 84% 30.08 in 10.0 mi Variable 4.6 mph - N/A   Mostly Cloudy
8:53 AM 73.0 °F 68.0 °F 84% 30.10 in 10.0 mi SE 5.8 mph - N/A   Mostly Cloudy
9:40 AM 73.4 °F 68.0 °F 83% 30.11 in 10.0 mi SE 5.8 mph - N/A   Mostly Cloudy
9:53 AM 73.9 °F 68.0 °F 82% 30.11 in 10.0 mi ESE 4.6 mph - N/A   Mostly Cloudy
10:53 AM 75.0 °F 68.0 °F 79% 30.12 in 10.0 mi SE 3.5 mph - 0.00 in   Mostly Cloudy
11:53 AM 73.9 °F 68.0 °F 82% 30.11 in 9.0 mi Calm Calm - 0.00 in Rain Light Rain
12:53 PM 73.9 °F 69.1 °F 85% 30.09 in 10.0 mi Calm Calm - 0.00 in   Overcast
1:26 PM 73.4 °F 69.8 °F 88% 30.07 in 2.5 mi Calm Calm - 0.01 in Rain Light Rain
1:43 PM 73.4 °F 69.8 °F 88% 30.07 in 1.0 mi South 4.6 mph - 0.10 in Rain Rain
1:53 PM 73.0 °F 71.1 °F 93% 30.06 in 2.0 mi Calm Calm - 0.26 in Rain Rain
1:59 PM 73.4 °F 69.8 °F 88% 30.06 in 4.0 mi Calm Calm - 0.01 in Rain Light Rain
2:39 PM 73.4 °F 69.8 °F 88% 30.05 in 10.0 mi Calm Calm - 0.02 in   Overcast
2:51 PM 73.4 °F 69.8 °F 88% 30.04 in 10.0 mi Calm Calm - 0.02 in   Overcast
2:53 PM 73.9 °F 70.0 °F 87% 30.04 in 10.0 mi SE 4.6 mph - 0.02 in   Overcast
3:53 PM 73.9 °F 68.0 °F 82% 30.02 in 10.0 mi East 6.9 mph - N/A   Overcast
4:53 PM 77.0 °F 64.9 °F 66% 30.01 in 10.0 mi Variable 3.5 mph - N/A   Mostly Cloudy
5:53 PM 79.0 °F 64.0 °F 60% 30.01 in 10.0 mi East 4.6 mph - N/A   Mostly Cloudy
6:53 PM 75.9 °F 66.9 °F 74% 30.02 in 10.0 mi NE 4.6 mph - N/A   Mostly Cloudy
7:53 PM 73.9 °F 68.0 °F 82% 30.03 in 10.0 mi ENE 4.6 mph - N/A   Mostly Cloudy
8:42 PM 73.4 °F 68.0 °F 83% 30.04 in 10.0 mi ENE 6.9 mph - N/A   Mostly Cloudy
8:53 PM 73.0 °F 68.0 °F 84% 30.04 in 10.0 mi ENE 6.9 mph - N/A   Mostly Cloudy
9:03 PM 73.4 °F 68.0 °F 83% 30.04 in 10.0 mi Variable 6.9 mph - N/A   Mostly Cloudy
9:53 PM 72.0 °F 66.0 °F 81% 30.04 in 10.0 mi East 6.9 mph - N/A   Mostly Cloudy
10:53 PM 71.1 °F 64.0 °F 78% 30.04 in 10.0 mi ENE 5.8 mph - N/A   Mostly Cloudy
11:53 PM 71.1 °F 63.0 °F 75% 30.04 in 10.0 mi ENE 5.8 mph - N/A   Overcast